GFSGL_sfc_dewp_198.txt.gz
Dewpoint
73 74 74 74 73 74 74 75 76 77 78 78 77 76 75 73 73 73 72 68 63 64 63 62 61 62 61 61 60 60 57 56 52 52 54 55 56 59 57 56 56 57 55
73 74 73 73 73 74 75 75 75 76 77 77 77 75 74 73 72 72 70 64 63 63 62 61 60 57 62 63 59 61 59 57 54 52 54 51 56 56 56 57 56 49 54
73 73 73 73 73 73 74 75 76 76 76 75 77 75 74 73 72 71 69 63 61 61 60 60 59 59 61 60 59 57 55 53 52 52 48 52 53 57 52 54 54 54 50
72 72 73 72 73 73 74 75 76 77 76 76 76 75 73 73 71 70 66 64 63 61 60 59 58 58 56 55 53 54 52 52 51 48 47 48 51 53 52 51 49 50 51
72 72 73 73 74 74 74 75 76 76 76 76 75 73 73 72 67 68 65 64 64 61 61 59 57 52 48 51 52 54 53 51 50 48 48 47 47 49 50 50 48 49 49
71 72 73 74 74 74 75 75 77 76 75 76 74 73 72 69 62 63 64 63 63 62 61 59 57 53 54 54 54 52 52 53 53 50 50 48 50 48 51 50 49 48 47
72 72 73 75 74 75 75 76 75 76 76 76 74 72 70 67 58 58 58 65 62 62 62 60 55 50 55 51 51 51 54 56 54 54 53 52 49 50 52 51 51 51 49
71 72 73 74 74 75 75 76 76 76 75 75 73 71 69 65 57 56 57 63 63 62 61 60 58 55 49 48 48 51 54 54 52 52 52 50 51 52 55 53 53 52 50
69 72 73 74 75 75 75 75 76 76 75 74 72 70 68 63 55 55 56 62 61 61 60 59 57 54 46 45 49 51 53 52 46 50 52 52 51 51 50 51 48 49 45
70 71 74 74 75 75 76 76 77 77 75 72 70 69 64 63 54 53 54 58 60 58 60 54 46 51 45 44 48 50 52 48 46 47 49 52 54 56 55 55 52 50 45
71 73 74 75 75 76 76 77 77 74 72 70 68 67 66 64 56 52 53 58 59 58 55 56 48 46 44 44 44 49 49 46 46 48 48 52 51 50 51 55 55 52 46
73 73 75 76 75 75 77 77 75 73 71 69 67 65 64 61 54 52 54 53 54 58 54 54 48 46 44 44 45 46 46 46 46 49 49 48 49 48 49 50 55 55 53
75 75 75 76 76 76 77 77 73 73 68 66 64 62 61 60 57 50 50 51 50 54 53 51 46 45 45 46 46 46 48 47 50 47 48 48 49 50 54 51 50 53 52
75 76 76 76 76 76 77 75 72 70 66 64 63 62 61 60 56 51 51 53 50 50 49 47 45 46 47 50 49 48 48 49 50 50 49 50 50 50 48 48 44 48 47
76 75 75 75 75 75 76 74 72 70 65 64 63 63 61 59 55 49 47 48 48 47 52 52 49 48 47 48 51 51 51 52 51 50 49 48 48 48 48 45 48 46 44
75 74 74 74 74 75 73 64 51 60 54 53 54 61 62 56 46 44 46 42 42 43 49 50 48 50 52 51 49 48 50 51 51 50 50 49 48 47 46 45 47 46 42
75 74 73 71 73 73 71 69 67 55 47 49 49 49 50 49 43 41 42 40 41 42 48 46 51 54 52 51 49 48 48 51 51 52 49 49 48 47 45 46 44 45 42
76 64 73 72 72 71 70 69 67 61 61 57 46 47 41 40 39 39 39 41 40 42 43 43 53 53 51 50 48 49 50 50 50 49 49 49 48 46 45 43 43 43 41
75 72 71 71 72 70 70 68 64 64 63 59 46 43 40 39 39 38 39 45 42 40 39 44 53 53 52 50 50 51 51 50 47 49 50 49 48 46 44 43 41 40 42
73 66 67 70 69 69 68 66 64 64 63 56 52 46 42 41 42 41 43 44 41 39 40 41 51 52 52 50 51 50 49 48 48 48 48 48 48 45 42 41 41 38 40
71 70 66 68 67 67 66 65 64 63 61 57 55 48 43 46 45 42 40 41 45 43 46 46 44 48 50 50 50 48 45 42 46 45 45 46 47 41 43 41 41 40 39
70 68 67 66 66 66 65 64 63 62 62 59 57 48 42 47 44 42 41 39 43 50 48 49 43 43 41 41 45 43 40 42 43 43 43 43 42 38 39 38 38 39 38
67 66 66 66 66 63 64 65 64 64 63 59 57 47 45 47 44 41 40 39 42 48 48 46 43 39 39 42 43 42 38 41 43 44 45 41 39 37 39 36 34 35 35
67 66 65 65 65 65 64 64 63 59 60 58 52 48 47 47 43 41 40 41 45 46 45 45 44 36 42 39 41 38 41 43 45 43 46 43 39 36 36 37 34 36 34
66 67 66 66 65 65 64 63 62 61 58 56 49 48 50 47 43 39 42 44 45 44 44 43 43 40 40 42 39 36 34 31 40 35 43 43 42 39 35 37 36 35 35
65 67 68 68 65 68 68 67 66 63 59 54 48 45 45 43 39 43 45 45 43 43 43 42 41 40 41 40 38 33 32 31 35 32 38 41 41 35 34 37 37 34 35

GFSGL_sfc_dewp_201.txt.gz
Dewpoint
70 69 68 70 72 71 71 72 74 73 72 73 72 73 72 71 70 69 66 62 60 58 58 56 56 57 57 58 56 55 53 51 48 48 49 50 48 51 51 51 54 51 50
69 69 71 72 71 71 70 71 73 73 73 73 74 72 72 71 70 69 67 62 58 58 58 56 54 56 57 56 55 54 51 50 47 45 48 45 47 51 49 50 50 49 51
70 71 71 72 71 71 71 72 73 73 73 74 74 72 72 70 70 69 67 58 57 58 56 55 54 55 54 52 50 50 48 47 47 48 44 46 46 50 46 50 49 48 48
71 71 71 71 71 71 71 72 73 74 73 73 74 73 71 70 70 68 61 58 57 56 55 54 54 52 50 48 48 45 44 46 46 45 44 44 46 48 46 49 47 46 48
70 70 71 70 71 71 72 73 73 73 73 73 74 72 71 70 68 66 61 59 58 56 56 54 52 51 53 50 46 45 46 46 47 46 45 45 45 45 42 48 47 47 47
70 70 70 72 71 71 72 72 73 73 73 75 73 72 70 70 65 64 62 60 59 57 55 54 51 55 53 54 54 55 50 47 45 47 46 45 46 44 47 47 47 47 46
70 70 71 72 72 72 72 72 72 73 73 74 73 71 70 67 62 62 63 60 59 58 57 56 54 52 53 50 48 49 51 56 55 47 46 47 47 44 45 46 46 47 47
69 70 71 72 71 72 72 72 72 73 73 74 72 70 68 61 58 58 60 60 57 57 58 55 54 49 44 39 39 44 48 50 42 53 51 50 48 45 47 50 49 48 48
68 70 71 72 72 72 72 71 73 72 73 74 72 69 67 60 55 55 55 58 57 56 56 54 54 46 45 45 40 44 45 49 47 48 50 52 53 54 54 48 45 46 46
67 69 70 71 72 72 72 72 72 73 73 73 70 69 65 59 54 54 54 58 57 57 56 50 55 46 46 43 38 42 45 44 40 38 41 45 49 50 56 49 46 46 47
67 68 71 71 71 72 72 72 72 73 74 72 69 68 65 58 52 52 52 57 57 56 57 50 43 48 45 43 43 39 44 43 39 40 43 46 44 42 44 48 51 50 48
67 70 70 72 72 73 73 73 73 74 74 70 68 66 64 58 52 51 51 54 52 55 54 54 47 46 43 44 44 44 46 47 41 43 44 42 42 42 44 46 47 44 46
69 68 70 71 73 72 73 74 74 74 72 69 66 65 63 60 55 50 51 51 51 47 52 50 47 43 43 44 46 46 47 42 43 41 43 41 43 45 43 44 42 42 45
70 70 70 72 72 73 74 74 74 73 70 69 66 65 63 59 55 51 49 52 51 49 52 45 43 42 43 41 46 46 45 43 44 43 42 44 44 43 42 43 41 43 42
69 71 72 72 72 73 73 74 74 73 70 68 66 65 62 58 55 50 46 50 50 49 45 41 41 41 39 41 43 46 48 46 45 42 42 44 42 43 42 42 43 42 38
72 71 71 72 72 73 73 68 54 61 56 54 57 61 61 56 48 44 44 45 46 48 47 44 39 42 43 45 48 45 43 46 42 41 44 43 42 42 41 41 42 41 38
72 73 72 71 72 73 73 72 70 56 49 51 51 53 53 51 45 42 43 43 44 44 43 46 46 46 48 47 42 40 42 43 43 45 42 44 42 41 41 42 40 40 38
74 65 73 72 72 74 73 71 70 66 63 59 46 51 46 44 43 41 41 43 43 43 43 44 43 46 47 44 41 42 43 44 41 41 42 43 41 41 41 39 38 39 38
75 73 72 73 73 72 73 70 69 65 65 57 47 44 43 42 41 41 40 41 43 43 42 39 42 49 46 43 44 45 42 43 39 39 44 41 41 42 37 39 39 41 38
73 69 69 72 72 71 71 70 68 64 63 58 57 51 43 43 44 43 43 42 42 43 40 39 42 48 46 45 45 46 43 44 41 42 40 40 42 38 37 37 38 37 37
74 73 67 71 71 71 70 68 65 64 63 57 55 47 42 47 45 43 43 44 42 40 41 38 44 47 45 45 44 42 41 39 41 39 38 39 41 33 38 35 37 38 36
72 71 70 69 69 70 69 67 64 64 62 55 49 42 41 45 43 43 46 43 46 46 49 45 45 43 41 42 44 42 40 39 39 38 39 39 35 35 36 33 36 36 35
70 70 69 69 68 65 66 66 64 63 60 56 49 44 43 46 44 45 45 44 44 49 50 46 43 41 42 44 42 38 37 39 39 39 41 39 33 34 37 33 34 34 33
67 66 67 67 66 67 65 65 63 59 61 57 47 46 45 47 44 45 47 45 46 44 47 44 41 37 38 38 37 40 41 42 41 42 41 40 33 33 33 34 34 34 35
66 67 68 67 65 65 64 65 63 63 60 52 50 49 48 49 44 43 50 42 43 46 46 43 39 37 36 35 35 34 35 32 36 38 39 39 32 30 31 35 34 35 34
65 65 66 67 67 67 65 65 64 63 61 53 55 54 55 52 46 42 43 42 45 44 42 42 38 39 37 34 33 32 32 31 32 32 38 39 32 31 32 33 34 34 35

GFSGL_sfc_dewp_207.txt.gz
Dewpoint
69 68 68 68 69 69 69 68 69 69 69 69 70 72 72 71 70 68 64 60 58 58 57 55 54 54 55 54 53 52 51 48 45 45 47 46 46 47 42 48 50 48 47
69 68 68 68 68 68 68 68 68 68 70 70 71 72 71 70 69 67 65 61 57 57 57 55 55 56 53 51 51 49 45 45 42 39 44 43 45 48 45 45 48 48 46
68 68 69 68 68 67 67 67 68 69 70 71 71 71 71 70 69 68 65 62 59 57 57 55 54 54 52 49 48 44 41 44 45 44 42 44 44 45 44 45 46 46 47
67 67 67 68 68 68 68 68 68 68 69 70 71 71 71 70 69 68 67 64 59 58 58 55 54 54 51 46 46 41 42 43 44 44 43 44 44 44 43 45 43 46 46
67 67 67 67 67 67 67 67 68 69 69 69 70 71 71 71 70 68 67 62 57 57 56 55 54 54 54 47 45 43 42 42 43 44 43 43 44 43 41 42 43 45 46
67 68 68 68 68 69 68 68 69 69 70 70 70 70 70 71 66 65 65 59 56 55 54 55 54 57 55 55 52 48 45 43 44 45 44 43 43 43 43 42 43 44 43
67 68 68 68 68 69 70 70 70 70 70 70 71 71 71 71 64 63 63 59 57 55 55 55 54 55 54 51 54 53 50 54 53 48 45 44 43 44 43 42 42 44 44
67 67 68 68 69 69 70 70 70 70 70 70 71 71 71 71 63 61 61 61 58 57 56 55 53 53 51 50 48 38 40 45 48 50 48 46 46 46 46 44 44 45 45
66 67 68 69 69 70 70 70 70 70 70 70 71 71 71 71 61 59 60 61 59 58 57 56 55 54 53 53 39 36 37 40 48 49 48 49 50 52 52 47 43 42 40
66 67 68 69 69 70 70 70 70 70 70 71 71 72 69 71 59 58 60 62 59 59 57 57 57 53 52 52 36 33 33 35 37 37 39 43 46 43 53 49 43 43 42
67 67 68 69 69 69 70 70 70 70 70 70 70 72 71 69 64 56 56 62 61 57 57 55 55 52 50 48 40 34 34 37 41 39 41 43 40 41 41 43 46 46 43
66 67 68 69 69 69 69 70 70 70 70 70 70 71 71 70 60 55 54 58 58 57 57 55 55 50 48 46 43 41 44 46 41 39 41 40 39 40 41 43 42 42 45
66 67 68 68 69 69 70 69 70 70 70 70 70 70 70 65 62 54 52 53 54 56 58 56 52 48 47 45 45 44 45 42 40 39 40 40 40 42 43 41 41 42 39
65 66 67 67 68 69 69 70 69 69 70 69 70 70 70 64 63 56 54 54 54 56 57 57 53 50 49 45 41 44 42 40 39 39 40 41 42 41 40 40 40 42 37
65 65 65 66 66 68 68 69 69 69 68 69 69 70 70 63 63 59 55 54 55 54 53 52 49 48 46 39 40 38 40 43 45 44 43 41 41 40 39 40 41 39 35
64 64 64 65 66 67 68 69 55 55 56 55 57 65 70 61 53 50 48 47 47 46 49 49 50 48 48 46 39 39 41 44 44 44 41 41 41 39 39 39 39 36 34
63 63 64 64 65 66 67 67 68 59 49 51 49 52 55 57 50 49 45 44 44 45 51 47 47 48 46 46 44 38 41 43 44 41 41 40 41 39 39 38 38 36 33
66 59 65 66 66 66 67 68 68 68 68 67 51 52 50 52 48 46 42 44 45 47 49 46 46 45 47 46 44 43 43 43 42 41 40 42 40 38 38 36 37 34 34
69 68 67 68 68 67 69 70 70 71 69 66 59 53 45 42 42 42 44 55 49 47 46 46 48 48 47 45 44 44 43 43 40 39 40 41 38 40 35 36 38 39 37
72 66 67 71 71 70 71 72 71 71 70 64 66 66 50 51 51 48 50 55 51 48 45 47 48 49 49 46 45 44 43 41 38 38 40 39 39 38 35 34 38 35 34
68 71 66 71 71 71 71 71 71 70 68 65 67 63 52 60 59 54 51 51 50 48 47 46 50 51 47 46 45 43 42 42 41 39 40 38 38 34 34 36 36 34 33
65 68 70 71 71 70 71 71 70 70 68 66 65 52 46 61 60 55 53 52 49 49 47 46 45 48 45 45 45 43 41 41 42 40 39 38 35 34 34 36 35 33 32
63 64 66 67 70 67 70 71 68 68 68 65 59 52 52 58 57 54 51 51 50 50 47 46 46 48 45 45 45 43 41 40 41 40 37 34 34 34 33 34 33 32 32
60 62 63 64 67 68 70 70 67 62 64 60 57 54 53 56 54 52 50 49 50 49 47 47 48 46 45 44 44 41 41 41 40 40 35 34 33 34 34 34 34 33 33
56 56 57 60 63 66 68 68 67 65 62 59 57 54 53 52 50 50 51 50 50 50 48 50 50 45 43 43 41 39 37 34 39 37 34 33 32 34 34 35 34 33 32
53 54 55 56 57 59 64 67 66 63 61 59 55 53 52 52 48 49 49 49 49 49 49 49 47 45 43 41 40 38 34 34 36 34 33 33 34 34 34 34 33 32 31

GFSGL_sfc_dewp_210.txt.gz
Dewpoint
69 69 70 69 70 70 70 70 71 71 71 71 72 73 73 72 72 69 67 63 62 61 59 58 57 58 58 57 55 54 53 51 49 49 50 50 50 52 51 49 50 52 50
69 69 69 69 69 70 70 70 70 70 70 71 71 72 73 72 71 70 67 64 61 60 60 58 58 56 57 56 54 54 51 50 47 46 47 47 49 51 51 49 49 47 50
69 69 69 68 68 68 69 70 69 70 70 70 71 72 72 72 71 70 69 66 62 61 60 59 58 58 57 54 52 50 46 46 47 46 45 46 47 48 48 48 50 50 48
68 68 68 68 68 68 68 69 68 69 69 70 71 72 72 72 72 71 69 67 64 61 61 60 58 58 57 54 51 49 45 46 47 46 46 46 47 48 47 44 45 47 47
67 68 68 69 69 69 69 68 69 69 69 69 70 71 72 72 71 71 70 68 66 62 61 60 58 58 58 54 49 49 48 46 45 46 46 47 46 46 46 45 44 45 48
66 67 68 69 69 69 69 69 69 69 69 70 69 70 70 71 67 66 69 69 66 63 60 59 58 59 59 56 54 50 48 48 48 48 48 48 49 47 47 45 45 45 45
66 67 68 68 68 68 68 69 68 69 70 70 70 70 70 71 65 64 65 69 65 62 59 59 56 55 58 55 57 56 52 52 50 51 51 49 48 48 48 47 47 47 47
67 67 68 68 68 68 69 69 69 70 70 70 70 71 71 71 64 62 63 69 65 63 60 58 58 57 57 55 54 53 49 45 49 52 54 52 50 49 48 48 48 48 48
67 68 68 69 68 69 69 70 70 70 70 70 71 71 71 72 61 61 62 68 65 63 60 59 58 58 56 54 53 52 49 43 44 51 51 51 50 51 50 49 48 44 43
67 68 68 69 69 69 69 70 70 70 70 71 71 72 69 72 59 59 61 67 65 64 61 59 58 57 54 53 53 49 50 43 42 43 44 47 48 48 49 53 48 45 43
67 68 68 69 69 69 70 70 70 70 71 71 71 71 72 71 70 57 57 69 66 64 63 59 59 54 52 50 49 46 45 45 44 45 44 45 46 45 45 47 50 47 44
68 68 68 69 69 69 70 70 70 70 70 70 70 70 71 72 62 56 56 59 63 66 64 63 60 52 50 49 49 44 43 46 44 43 44 44 44 44 45 46 47 47 47
68 68 69 70 70 70 70 70 70 70 70 70 70 69 70 72 68 58 55 56 57 65 65 62 56 50 48 50 48 44 46 46 42 42 43 44 45 45 47 47 47 48 47
67 68 69 69 69 70 70 70 69 70 70 70 69 70 70 68 67 67 65 58 57 59 59 59 55 53 51 51 48 46 46 45 42 43 43 44 45 45 44 44 43 44 42
67 67 68 68 68 69 70 70 69 70 68 69 69 69 70 70 66 64 63 61 61 59 59 57 55 53 52 48 48 46 47 45 44 44 44 44 44 44 43 43 43 43 39
66 66 66 67 67 68 69 69 60 58 56 55 56 65 70 62 55 53 50 50 50 49 57 56 55 52 51 49 47 45 43 42 43 46 46 45 44 43 43 42 42 40 38
66 66 67 65 67 67 68 68 68 62 52 51 48 50 49 59 51 51 49 45 45 49 58 57 56 53 52 50 50 47 42 42 48 46 46 45 44 44 42 41 41 40 38
66 59 66 66 66 67 67 68 67 67 67 68 54 53 48 47 49 48 44 47 48 51 57 54 54 53 54 52 50 46 43 47 45 46 45 45 45 42 42 39 40 40 38
71 68 67 67 68 66 68 68 68 68 69 69 65 53 44 42 42 42 45 61 55 53 56 55 55 53 52 51 50 46 48 46 46 45 44 44 44 42 41 38 40 39 39
67 63 66 71 71 70 69 70 70 71 71 69 68 69 52 52 54 51 52 59 56 55 56 55 52 53 52 50 48 45 47 45 45 44 44 44 43 43 38 38 40 38 37
64 66 63 70 72 72 72 72 71 72 72 69 69 69 52 62 63 57 53 56 57 56 54 51 51 52 50 49 47 46 45 45 44 43 43 43 43 39 39 40 40 37 36
62 63 63 65 67 69 71 72 72 72 71 70 70 64 46 62 64 60 56 57 57 56 54 53 52 51 49 47 47 46 45 44 43 42 42 41 40 38 37 39 37 36 35
56 57 59 61 63 61 66 70 72 71 71 70 69 59 55 59 63 60 57 57 56 54 52 53 51 50 48 47 47 46 44 44 44 43 42 40 38 37 37 37 35 34 34
53 54 56 56 57 59 62 65 69 64 68 70 66 61 59 59 61 58 56 55 54 52 51 52 49 48 47 47 47 46 45 44 45 43 42 38 37 36 36 36 35 35 34
51 51 53 54 54 55 56 58 62 67 68 67 62 59 59 58 58 56 55 54 52 51 50 50 49 48 47 45 46 45 41 36 43 39 38 39 38 40 37 36 36 34 34
48 49 50 51 52 53 54 54 55 57 61 62 61 59 57 58 56 52 52 52 52 51 49 48 48 48 45 45 45 40 34 34 37 35 38 38 38 37 37 36 36 33 34